Regional Weather Roundup
Issued by NWS Kansas City/Pleasant Hill, MO

Home | Current Version | Previous Version | Text Only | Print | Product List | Glossary On
Versions: 1 2 3 4 5 6 7 8 9 10 11 12 13 14 15 16 17 18 19 20 21 22 23 24 25 26 27 28 29 30 31 32 33 34 35 36 37 38 39 40 41 42 43 44 45 46 47 48 49 50
944
ASUS43 KEAX 261810
RWREAX

WEATHER ROUNDUP FOR EASTERN KANSAS AND NORTHWEST MISSOURI
NATIONAL WEATHER SERVICE KANSAS CITY/PLEASANT HILL MO
1200 PM CST SUN FEB 26 2017

KSZ040-057-103>105-MOZ028-029-037-043-261900-
...KANSAS CITY METROPOLITAN AREA...

CITY           SKY/WX    TMP DP  RH WIND       PRES   REMARKS
K.C. INTL      MOSUNNY   44  29  55 S8        30.01F
6HR MIN TEMP:  35; 6HR MAX TEMP:  46; 6HR PCP: TRACE;

K.C. DOWNTOWN  CLOUDY    44  34  67 CALM      30.02F
6HR MIN TEMP:  36; 6HR MAX TEMP:  44; 6HR PCP: TRACE;

LEES SUMMIT    CLOUDY    45  29  53 S10       30.02F
6HR MIN TEMP:  34; 6HR MAX TEMP:  45; 6HR PCP: TRACE;

OLATHE - IXD   MOSUNNY   46  28  49 SE10      30.02F
6HR MIN TEMP:  36; 6HR MAX TEMP:  46; 6HR PCP: TRACE;

OLATHE - OJC   MOSUNNY   44  28  53 SE10      30.01F
6HR MIN TEMP:  34; 6HR MAX TEMP:  44; 6HR PCP: TRACE;

LAWRENCE       CLOUDY    48  26  42 SE7       30.01F

$$

MOZ001>008-011>017-020>025-030>033-038>040-044>046-053-054-261900-
...NORTHERN AND CENTRAL MISSOURI...

CITY           SKY/WX    TMP DP  RH WIND       PRES   REMARKS
ST. JOSEPH     SUNNY     49  32  52 SW15G22   29.99F
6HR MIN TEMP:  23; 6HR MAX TEMP:  50;

MOSBY          CLEAR     45  30  57 S6        30.03F
WARRENSBURG    CLOUDY    41  28  60 SE6       30.05F
WHITEMAN AFB   CLOUDY    43  26  50 S7        30.04F
6HR MIN TEMP:  33; 6HR MAX TEMP:  43;

CLINTON        CLOUDY    45  21  39 S7        30.06F
SEDALIA        CLOUDY    45  21  38 S8        30.06F
6HR MIN TEMP:  37; 6HR MAX TEMP:  45;

WARSAW         NOT AVBL
CHILLICOTHE      N/A     46  31  55 S12       30.03F
6HR MIN TEMP:  31; 6HR MAX TEMP:  46;

KIRKSVILLE     SUNNY     48  26  42 SW18G30   30.00F
6HR MIN TEMP:  32; 6HR MAX TEMP:  49;


$$

MOZ041-047>049-056>058-063>065-088>090-097-261900-
...EASTERN AND SOUTHERN MISSOURI...

CITY           SKY/WX    TMP DP  RH WIND       PRES   REMARKS
ST. LOUIS INTL CLOUDY    43  14  31 S12G18    30.13F
6HR MIN TEMP:  32; 6HR MAX TEMP:  43;

SPIRIT OF STL  CLOUDY    43  15  32 S9        30.12F
COLUMBIA       CLOUDY    43  19  38 S10       30.07F
JEFFERSON CITY CLOUDY    44  16  32 S13       30.09F
ROLLA          CLOUDY    44  17  33 S16       30.08F
OSAGE BEACH    CLOUDY    45  19  35 S8        30.08F
SPRINGFIELD    MIX PCPN  36  34  92 SE9       30.07F WCI  29
BRANSON        CLOUDY    46  23  39 SE7       30.08F
JOPLIN         LGT RAIN  40  38  93 SE7       30.05F
WEST PLAINS    CLOUDY    45  21  38 S9        30.12F

$$

IAZ060-094-KSZ022-034>040-054-083-096-NEZ052-066-093-261900-
...KANSAS...SOUTHEAST NEBRASKA AND IOWA...

CITY           SKY/WX    TMP DP  RH WIND       PRES   REMARKS
TOPEKA         CLOUDY    47  25  42 S7        29.99F
6HR MIN TEMP:  34; 6HR MAX TEMP:  47; 6HR PCP: TRACE;

MANHATTAN      SUNNY     49  25  39 SW10      29.97F
EMPORIA        SUNNY     46  24  42 S10       29.97F
CHANUTE        CLOUDY    47  32  56 S13G23    29.99F
WICHITA        PTSUNNY   46  25  43 VRB3      29.95F
OMAHA          MOSUNNY   40  20  44 W12       29.96S WCI  33
LINCOLN        SUNNY     40  21  46 W8        29.98S WCI  34
FALLS CITY     SUNNY     50  27  40 S17G25    29.95F
LAMONI         MOSUNNY   48  29  47 SW23G30   29.95F
DES MOINES     MOSUNNY   46  26  45 W26       29.92S

$$





USA.gov is the U.S. government's official web portal to all federal, state and local government web resources and services.